Find Hebi-3

NORAD ID: 56156 Int'l Des: 2023-047 Owner: PIESAT Country: CN operational
LEOCIRCULARRETROGRADESSO

リアルタイム位置

3D地球を読み込み中...

Hebi-3について

説明を読み込み中...

次回通過

Passes for default location (London). Set your location on the main map for personalized predictions.

高度履歴

Loading altitude history...

軌道要素

1 56156U 23047D 26103.52931418 .00002319 00000-0 13032-3 0 9991
2 56156 97.5039 291.6076 0001438 84.3412 275.7984 15.14281101168019
Epoch: Apr 13, 2026 • Age: 23 hours

現在のステータス

高度 535.3 km
速度 7.60 km/s
衛星直下点 77.54°N, 115.34°W
打ち上げ日 Mar 30, 2023
運用期間 3 years
タイプ other

技術仕様

分類 Payload
質量 270.00 kg
乾燥質量 270.00 kg
総質量 270.00 kg
長さ 1.00 m
直径 1.00 m
スパン 4.00 m
形状 Box + 2 Pan
製造者 YINHE
バスタイプ Piesat
フェーズステータス In Orbit
所有者/国 PIESAT/CN

Most Searched